Starlink 34069

operational
NORAD ID: 64920 Int'l Des: 2025-157 Owner: SPXS Country: US Constellation: starlink
LEOCIRCULAR

关于 Starlink 34069

正在加载描述...

实时位置

正在加载3D地球...

即将过境

高度历史

Altitude vs Time

uPlot chart will show altitude changes over time

两行轨道根数

1 64920U 25157S 25342.63862336 .00073432 00000-0 18268-2 0 9990
2 64920 53.1571 52.8439 0001015 91.9415 268.1706 15.39643225 22129
Epoch: Dec 8, 2025 • Age: 11 hours

当前状态

高度 451.9 km
速度 7.65 km/s
星下点 48.93°N, 53.13°E
发射日期 Jul 26, 2025
运行时间 0.3 years
类型 internet

技术详情

分类 Payload
质量 575.00 kg
干质量 530.00 kg
总质量 575.00 kg
长度 0.30 m
直径 4.10 m
跨度 29.00 m
形状 Box + pan
制造商 SPXS
平台类型 Starlink V2MO
阶段状态 In Orbit
所有者/国家 SPXS/US

大型星座

Loading constellations...